Regional Weather Roundup
Issued by NWS

Home | Current Version | Previous Version | Text Only | Print | Product List | Glossary On
Versions: 1 2 3 4 5 6 7 8 9 10 11 12 13 14 15 16 17 18 19 20 21 22 23 24 25 26 27 28 29 30 31 32 33 34 35 36 37 38 39 40 41 42 43 44 45 46 47 48 49 50
000
ASUS43 KLMK 050410
RWRKY
KENTUCKY REGIONAL WEATHER ROUNDUP
NATIONAL WEATHER SERVICE LOUISVILLE KY
1100 PM EST SUN DEC 04 2016

NOTE "FAIR" INDICATES FEW OR NO CLOUDS BELOW 12,000 FEET
WITH NO SIGNIFICANT WEATHER AND/OR OBSTRUCTIONS TO VISIBILITY.

KYZ001>023-026-027-061>063-070>075-050500-
WESTERN AND SOUTH CENTRAL KENTUCKY

CITY           SKY/WX    TMP DP  RH WIND       PRES   REMARKS
PADUCAH        CLOUDY    43  35  73 NW7       30.05R
HENDERSON      CLOUDY    39  34  81 W9        30.04R WCI  33
OWENSBORO      CLOUDY    41  37  86 W10       30.04R
HOPKINSVILLE   CLOUDY    44  40  87 NW6       30.03R
BOWLING GREEN  CLOUDY    46  42  86 W9        30.03R
GLASGOW        CLOUDY    45  45 100 W10       30.01R
$$

KYZ024-025-028>034-038-045-046-053-050500-
NORTH CENTRAL KENTUCKY

CITY           SKY/WX    TMP DP  RH WIND       PRES   REMARKS
LOUISVILLE/SDF CLOUDY    45  40  82 W13       29.98R
LOUISVILLE/LOU CLOUDY    45  41  86 W12       29.98R
FORT KNOX      CLOUDY    43  41  93 W12       29.98R
$$

KYZ035>037-039>044-047>052-055>060-089>105-050500-
NORTHEAST KENTUCKY

CITY           SKY/WX    TMP DP  RH WIND       PRES   REMARKS
LEXINGTON      CLOUDY    46  42  86 W12       29.95R
COVINGTON      CLOUDY    43  41  93 W16       29.91R
FRANKFORT      CLOUDY    46  41  82 W8        29.95R
$$

KYZ054-064>069-076>088-106>120-050500-
SOUTHEAST KENTUCKY

CITY           SKY/WX    TMP DP  RH WIND       PRES   REMARKS
JACKSON        CLOUDY    45  44  97 VRB6      29.96R
LONDON         CLOUDY    47  44  90 SW7       29.99R
SOMERSET       CLOUDY    45  45 100 W10       30.01R
MIDDLESBORO    CLOUDY    46  46 100 CALM      30.00R
MONTICELLO     CLOUDY    47  45  93 W14       30.02R
$$




USA.gov is the U.S. government's official web portal to all federal, state and local government web resources and services.